WST704 MYNN-MYGF

Flight info

Callsign WST704
Flight time 0h 31m
Altitude 16000
Route PEACH BR65V ZFP
Aircraft E145/M-SDFGIRW/S

Departure

Time 2026-05-04 13:30
Airport Lynden Pindling International Airport (MYNN)

Arrival

Time 2026-05-04 14:02
Airport Grand Bahama International Airport (MYGF)
Time Latitude Longitude Altitude Speed Heading
2026-05-04 13:08 25.04853 -77.46605 23 ft 0 kts
2026-05-04 13:23 25.04856 -77.46609 23 ft 1 kts 288°
2026-05-04 13:23 25.04848 -77.46615 23 ft 4 kts 188°
2026-05-04 13:23 25.04808 -77.46634 23 ft 11 kts 220°
2026-05-04 13:24 25.04743 -77.46700 22 ft 15 kts 224°
2026-05-04 13:24 25.04679 -77.46737 23 ft 11 kts 171°
2026-05-04 13:24 25.04622 -77.46686 23 ft 12 kts 135°
2026-05-04 13:25 25.04485 -77.46536 22 ft 18 kts 136°
2026-05-04 13:25 25.04398 -77.46440 23 ft 20 kts 136°
2026-05-04 13:25 25.04302 -77.46331 23 ft 23 kts 135°
2026-05-04 13:25 25.04194 -77.46212 22 ft 25 kts 135°
2026-05-04 13:26 25.04074 -77.46080 23 ft 27 kts 134°
2026-05-04 13:26 25.03947 -77.45939 23 ft 26 kts 135°
2026-05-04 13:26 25.03829 -77.45809 22 ft 26 kts 135°
2026-05-04 13:26 25.03702 -77.45675 20 ft 28 kts 137°
2026-05-04 13:27 25.03584 -77.45534 19 ft 28 kts 133°
2026-05-04 13:27 25.03454 -77.45390 19 ft 28 kts 135°
2026-05-04 13:27 25.03328 -77.45252 19 ft 28 kts 133°
2026-05-04 13:27 25.03221 -77.45178 19 ft 15 kts 179°
2026-05-04 13:28 25.03180 -77.45182 19 ft 0 kts 189°
2026-05-04 13:28 25.03176 -77.45183 19 ft 1 kts 189°
2026-05-04 13:29 25.03138 -77.45190 19 ft 8 kts 195°
2026-05-04 13:29 25.03103 -77.45231 19 ft 9 kts 267°
2026-05-04 13:29 25.03131 -77.45290 19 ft 10 kts 315°
2026-05-04 13:29 25.03233 -77.45402 19 ft 51 kts 315°
2026-05-04 13:30 25.03592 -77.45799 21 ft 110 kts 314°
2026-05-04 13:30 25.04155 -77.46430 35 ft 152 kts 314°
2026-05-04 13:30 25.04862 -77.47187 332 ft 166 kts 314°
2026-05-04 13:30 25.05606 -77.47951 1007 ft 162 kts 326°
2026-05-04 13:31 25.06532 -77.48367 1549 ft 168 kts 334°
2026-05-04 13:31 25.07507 -77.48930 1969 ft 186 kts 326°
2026-05-04 13:31 25.08491 -77.49622 2422 ft 203 kts 323°
2026-05-04 13:31 25.09569 -77.50446 2885 ft 221 kts 322°
2026-05-04 13:32 25.10737 -77.51367 3340 ft 234 kts 322°
2026-05-04 13:32 25.12040 -77.52407 3822 ft 247 kts 321°
2026-05-04 13:32 25.13324 -77.53436 4269 ft 258 kts 321°
2026-05-04 13:32 25.14647 -77.54499 4729 ft 268 kts 321°
2026-05-04 13:33 25.15990 -77.55576 5419 ft 267 kts 321°
2026-05-04 13:33 25.17361 -77.56677 6190 ft 264 kts 321°
2026-05-04 13:33 25.18711 -77.57761 6961 ft 260 kts 321°
2026-05-04 13:33 25.20051 -77.58839 7736 ft 255 kts 320°
2026-05-04 13:34 25.21289 -77.59834 8463 ft 250 kts 320°
2026-05-04 13:34 25.22551 -77.60847 9222 ft 244 kts 320°
2026-05-04 13:34 25.23749 -77.61811 9956 ft 237 kts 320°
2026-05-04 13:34 25.24956 -77.62780 10713 ft 229 kts 319°
2026-05-04 13:35 25.26110 -77.63708 11463 ft 219 kts 318°
2026-05-04 13:35 25.28240 -77.65427 12434 ft 222 kts 317°
2026-05-04 13:35 25.29436 -77.66393 12468 ft 246 kts 317°
2026-05-04 13:36 25.30743 -77.67446 12503 ft 269 kts 318°
2026-05-04 13:36 25.32157 -77.68584 12543 ft 289 kts 319°
2026-05-04 13:36 25.33657 -77.69793 12571 ft 308 kts 319°
2026-05-04 13:36 25.35242 -77.71069 12830 ft 317 kts 319°
2026-05-04 13:37 25.36816 -77.72337 13316 ft 318 kts 318°
2026-05-04 13:37 25.38453 -77.73657 13822 ft 319 kts 319°
2026-05-04 13:37 25.40028 -77.74927 14248 ft 321 kts 318°
2026-05-04 13:37 25.41066 -77.75767 14469 ft 324 kts 319°
2026-05-04 13:38 25.43212 -77.77483 14856 ft 334 kts 321°
2026-05-04 13:38 25.44941 -77.78703 14873 ft 346 kts 317°
2026-05-04 13:38 25.46571 -77.80155 14883 ft 353 kts 317°
2026-05-04 13:38 25.48305 -77.81601 14875 ft 361 kts 318°
2026-05-04 13:39 25.50031 -77.83024 14878 ft 367 kts 319°
2026-05-04 13:39 25.51955 -77.84596 14877 ft 373 kts 319°
2026-05-04 13:39 25.53879 -77.86163 14868 ft 374 kts 319°
2026-05-04 13:39 25.55818 -77.87740 14873 ft 373 kts 319°
2026-05-04 13:40 25.57714 -77.89284 14870 ft 369 kts 319°
2026-05-04 13:40 25.59695 -77.90894 14869 ft 366 kts 319°
2026-05-04 13:40 25.61592 -77.92439 14871 ft 364 kts 319°
2026-05-04 13:40 25.63457 -77.93958 14865 ft 362 kts 319°
2026-05-04 13:41 25.65243 -77.95412 14871 ft 366 kts 319°
2026-05-04 13:41 25.67086 -77.96917 14864 ft 371 kts 319°
2026-05-04 13:41 25.68955 -77.98441 14865 ft 374 kts 319°
2026-05-04 13:42 25.72838 -78.01613 14865 ft 378 kts 319°
2026-05-04 13:42 25.74808 -78.03222 14871 ft 379 kts 319°
2026-05-04 13:42 25.76736 -78.04797 14876 ft 380 kts 319°
2026-05-04 13:42 25.78704 -78.06405 14868 ft 365 kts 319°
2026-05-04 13:43 25.80494 -78.07865 14605 ft 348 kts 319°
2026-05-04 13:43 25.82209 -78.09272 14167 ft 338 kts 318°
2026-05-04 13:43 25.83905 -78.10668 13729 ft 329 kts 319°
2026-05-04 13:43 25.85549 -78.12015 13300 ft 322 kts 319°
2026-05-04 13:44 25.87152 -78.13332 12865 ft 315 kts 319°
2026-05-04 13:44 25.88728 -78.14623 12423 ft 309 kts 319°
2026-05-04 13:44 25.90299 -78.15912 11982 ft 304 kts 319°
2026-05-04 13:44 25.91811 -78.17151 11554 ft 298 kts 320°
2026-05-04 13:45 25.93316 -78.18386 11164 ft 292 kts 320°
2026-05-04 13:45 25.94787 -78.19593 10819 ft 286 kts 320°
2026-05-04 13:45 25.96209 -78.20759 10512 ft 279 kts 319°
2026-05-04 13:45 25.97621 -78.21918 10226 ft 271 kts 320°
2026-05-04 13:46 25.98982 -78.23036 9974 ft 264 kts 320°
2026-05-04 13:46 26.00301 -78.24120 9748 ft 256 kts 320°
2026-05-04 13:46 26.01570 -78.25163 9526 ft 250 kts 320°
2026-05-04 13:46 26.02831 -78.26199 9295 ft 244 kts 320°
2026-05-04 13:47 26.04074 -78.27223 9081 ft 250 kts 320°
2026-05-04 13:47 26.05363 -78.28284 8863 ft 253 kts 320°
2026-05-04 13:47 26.06644 -78.29339 8643 ft 255 kts 321°
2026-05-04 13:47 26.07944 -78.30408 8423 ft 256 kts 320°
2026-05-04 13:48 26.09246 -78.31480 8203 ft 257 kts 320°
2026-05-04 13:48 26.10568 -78.32568 7983 ft 258 kts 321°
2026-05-04 13:48 26.11867 -78.33638 7768 ft 258 kts 321°
2026-05-04 13:48 26.13015 -78.34817 7554 ft 255 kts 305°
2026-05-04 13:49 26.13908 -78.36289 7350 ft 255 kts 303°
2026-05-04 13:49 26.14826 -78.37755 7131 ft 255 kts 303°
2026-05-04 13:49 26.15734 -78.39216 6911 ft 255 kts 303°
2026-05-04 13:49 26.16662 -78.40708 6688 ft 254 kts 303°
2026-05-04 13:50 26.17606 -78.42226 6457 ft 254 kts 303°
2026-05-04 13:50 26.18547 -78.43740 6231 ft 253 kts 304°
2026-05-04 13:50 26.19474 -78.45229 6007 ft 253 kts 304°
2026-05-04 13:50 26.20371 -78.46672 5789 ft 252 kts 304°
2026-05-04 13:51 26.21263 -78.48108 5570 ft 252 kts 304°
2026-05-04 13:51 26.22171 -78.49568 5345 ft 249 kts 304°
2026-05-04 13:51 26.23061 -78.51000 5126 ft 248 kts 304°
2026-05-04 13:51 26.23946 -78.52425 4903 ft 247 kts 304°
2026-05-04 13:52 26.25740 -78.55315 4457 ft 246 kts 304°
2026-05-04 13:52 26.26634 -78.56757 4244 ft 253 kts 304°
2026-05-04 13:52 26.27513 -78.58178 4039 ft 258 kts 305°
2026-05-04 13:53 26.28423 -78.59645 3826 ft 260 kts 306°
2026-05-04 13:53 26.29347 -78.61134 3600 ft 253 kts 306°
2026-05-04 13:53 26.30249 -78.62588 3376 ft 246 kts 306°
2026-05-04 13:54 26.32038 -78.65479 2912 ft 236 kts 307°
2026-05-04 13:54 26.32891 -78.66854 2680 ft 231 kts 307°
2026-05-04 13:54 26.34562 -78.69556 2217 ft 225 kts 307°
2026-05-04 13:55 26.35359 -78.70843 2010 ft 222 kts 307°
2026-05-04 13:55 26.36884 -78.73309 1953 ft 199 kts 308°
2026-05-04 13:55 26.37592 -78.74383 1944 ft 186 kts 321°
2026-05-04 13:56 26.38542 -78.74905 1962 ft 163 kts
2026-05-04 13:56 26.39495 -78.74696 1971 ft 148 kts 14°
2026-05-04 13:56 26.41266 -78.74855 1858 ft 154 kts 352°
2026-05-04 13:57 26.42272 -78.75080 1683 ft 174 kts 352°
2026-05-04 13:57 26.43376 -78.75316 1592 ft 188 kts 349°
2026-05-04 13:58 26.46628 -78.76679 1558 ft 169 kts 340°
2026-05-04 13:58 26.48393 -78.77595 1556 ft 145 kts 339°
2026-05-04 13:58 26.49191 -78.77909 1538 ft 129 kts
2026-05-04 13:59 26.49963 -78.77721 1528 ft 126 kts 20°
2026-05-04 13:59 26.50750 -78.77415 1606 ft 138 kts 19°
2026-05-04 13:59 26.52200 -78.76599 1529 ft 128 kts 48°
2026-05-04 14:00 26.52698 -78.75837 1155 ft 144 kts 56°
2026-05-04 14:00 26.53558 -78.74192 766 ft 132 kts 59°
2026-05-04 14:00 26.53935 -78.73390 522 ft 134 kts 58°
2026-05-04 14:01 26.54347 -78.72604 363 ft 129 kts 58°
2026-05-04 14:01 26.54735 -78.71822 219 ft 127 kts 60°
2026-05-04 14:01 26.55491 -78.70311 23 ft 107 kts 61°
2026-05-04 14:02 26.55764 -78.69768 12 ft 39 kts 62°
2026-05-04 14:02 26.55883 -78.69528 12 ft 33 kts 71°
2026-05-04 14:02 26.55857 -78.69444 12 ft 14 kts 137°
2026-05-04 14:02 26.55766 -78.69474 12 ft 18 kts 217°
2026-05-04 14:03 26.55676 -78.69554 12 ft 19 kts 222°
2026-05-04 14:03 26.55585 -78.69647 12 ft 20 kts 223°
2026-05-04 14:03 26.55485 -78.69748 12 ft 20 kts 220°
2026-05-04 14:03 26.55386 -78.69842 12 ft 21 kts 218°
2026-05-04 14:04 26.55174 -78.70042 12 ft 23 kts 220°
2026-05-04 14:04 26.55057 -78.70155 12 ft 25 kts 220°
2026-05-04 14:04 26.54965 -78.70242 12 ft 13 kts 215°
2026-05-04 14:05 26.54921 -78.70185 12 ft 9 kts 90°
2026-05-04 14:05 26.54919 -78.70116 12 ft 10 kts 91°
2026-05-04 14:05 26.54919 -78.70101 12 ft 11 kts 91°
2026-05-04 14:08 26.54918 -78.70061 12 ft 11 kts 91°
2026-05-04 14:08 26.54917 -78.69976 12 ft 13 kts 92°
2026-05-04 14:08 26.54914 -78.69881 12 ft 14 kts 91°
2026-05-04 14:09 26.54896 -78.69758 12 ft 5 kts 179°
2026-05-04 14:09 26.54882 -78.69760 12 ft 0 kts 187°